Other Public Products
Issued by NWS Grand Forks, ND

Home | Current Version | Previous Version | Text Only | Print | Product List | Glossary On
Versions: 1 2 3 4 5 6 7 8 9 10 11 12 13 14 15 16 17 18 19 20 21 22 23 24 25 26 27 28 29 30 31 32 33 34 35 36 37 38 39 40 41 42 43 44 45 46 47 48 49 50
000
FPUS83 KFGF 230931
OPUFGF
PRAIRIE TO PINES WEATHER ROUNDUP
NATIONAL WEATHER SERVICE EASTERN NORTH DAKOTA/GRAND FORKS ND
300 AM CST SUN NOV 23 2014

 **SATELLITE DATA USED TO AUGMENT SKY COVER AT AUTOMATED STATIONS**
 *****  WEATHER ACROSS EASTERN NORTH DAKOTA  *****

CITY           SKY/WX    TMP DP  RH WIND       PRES   REMARKS
GRAND FORKS    CLOUDY    33  31  92 SW12      29.37R WCI  24
GRAND FORKS AF CLOUDY    32  32 100 SW7       29.35S
GRAND CITY NWS   N/A     32 N/A N/A S14         N/A  WCI  22
BUXTON           N/A     33  32  99 S9          N/A
DEVILS LAKE    MOCLDY    37  28  70 SW10      29.32R
FARGO          CLOUDY    32  30  92 S9        29.39R FOG     WCI  24
WAHPETON ARPT  CLOUDY    32  32 100 S6        29.42R
$$

 *****  WEATHER ACROSS CENTRAL AND WESTERN NORTH DAKOTA  *****

CITY           SKY/WX    TMP DP  RH WIND       PRES   REMARKS
JAMESTOWN      CLOUDY    38  34  85 W9        29.36S
BISMARCK       CLOUDY    38  35  89 W7        29.42R
MINOT          MOCLDY    38  29  70 SW12      29.30R
MINOT AFB      CLOUDY    39  33  79 W13G21    29.29R
GARRISON         N/A     39  32  76 W12       29.35R
WILLISTON      CLOUDY    38  27  64 W29G38    29.38R
DICKINSON      CLOUDY    36  30  79 W22       29.41R
HETTINGER      CLOUDY    35  29  78 W17G26    29.50R WCI  25
$$

 *****  OTHER OBSERVATIONS NORTHEAST NORTH DAKOTA  *****

CITY           SKY/WX    TMP DP  RH WIND       PRES   REMARKS
WALHALLA         N/A     32  32 100 S7        29.30F
LANGDON        FAIR      30  28  93 SW9       29.29S WCI  22
CAVALIER       FAIR      32  30  93 S10       29.32F FOG     WCI  24
GRAFTON        PTSUNNY   32  32 100 S9        29.34F FOG     WCI  24
CANDO          FAIR      32  28  86 W8        29.31R WCI  25
FORT TOTTEN      N/A     38  32  79 SW7       29.95S
ROLLA          FAIR      30  30 100 W8        29.28R WCI  23
RUGBY          FAIR      36  30  80 W14       29.31R
 ***** THE ABOVE OBSERVATIONS ARE NON NWS ARE NOT QUALITY
        CONTROLLED AND MAY MIS-REPORT RAIN FOR SNOW...
$$

 *****  OTHER OBSERVATIONS SOUTHEAST NORTH DAKOTA *****

CITY           SKY/WX    TMP DP  RH WIND       PRES   REMARKS
COOPERSTOWN    NOT AVBL
VALLEY CITY    CLOUDY    36  36 100 SW10      29.37R
OAKES            N/A     36  36 100 W8        29.40S
GWINNER        PTSUNNY   36  34  93 SW10      29.40F
BUFFALO        NOT AVBL
WYNDMERE         N/A     30  32 100 SW3         N/A
 ***** THE ABOVE OBSERVATIONS ARE NON NWS ARE NOT QUALITY
       CONTROLLED AND MAY MIS-REPORT RAIN FOR SNOW...
$$

  *****  WEATHER ACROSS NORTHERN MINNESOTA  *****

CITY           SKY/WX    TMP DP  RH WIND       PRES   REMARKS
FLAG ISLAND    CLOUDY    34  30  86 SE13      29.37F FOG     WCI  25
WARROAD        CLOUDY    34  30  86 S9        29.38S FOG
ROSEAU         CLOUDY    36  30  80 S9        29.37S HAZE
HALLOCK        CLOUDY    34  32  93 S15       29.35S FOG     WCI  24
THF RVR FALLS  CLOUDY    34  32  93 S8        29.37S
HALSTAD          N/A     33  32  95 SW10        N/A
FOSSTON        CLOUDY    32  30  93 S7        29.37F FOG
BAUDETTE       CLOUDY    33  30  88 S5        29.39F
WASKISH        CLOUDY    34  32  93 CALM      29.40S FOG
CROOKSTON      CLOUDY    34  34 100 S12       29.37S FOG
$$
  *****  WEATHER ACROSS CENTRAL AND WEST MINNESOTA  *****

CITY           SKY/WX    TMP DP  RH WIND       PRES   REMARKS
BEMIDJI        SNOW      32  32 100 S6        29.37F VSB 1/2
PARK RAPIDS    FOG       33  33 100 SE5       29.37S VSB 1/2
WADENA         FOG       34  34 100 SW5       29.38F VSB 1
DETROIT LAKES  FOG       34  34 100 S6        29.39S VSB 3/4
MOORHEAD       FOG       34  34 100 S8        29.40R VSB 1/2
FERGUS FALLS   CLOUDY    34  32  93 SW7       29.43R FOG
ELBOW LAKE       N/A     33  32  96 SW7       29.40R
MORRIS MN      CLOUDY    36  34  93 SW6       29.39S
STAPLES        FOG       34  34 100 CALM      29.38F VSB 1/4
WHEATON        CLOUDY    34  30  86 SW3       29.42S
$$
  *****  WEATHER ELSEWHERE ACROSS MINNESOTA  *****

CITY           SKY/WX    TMP DP  RH WIND       PRES   REMARKS
DULUTH         DRZL/FOG  35  34  96 E13       29.42F VSB 1/4
INTRNTL FALLS  CLOUDY    33  30  88 S5        29.42S FOG
ELY            CLOUDY    34  32  93 SE5       29.44F FOG
CLOQUET        FOG       36  34  93 E3        29.42F VSB 1/4
BRAINERD       FOG       34  34 100 S3        29.40F VSB 1/4
HIBBING        FOG       34  32  92 CALM      29.42F VSB 1
ALEXANDRIA     CLOUDY    35  33  92 SW9       29.40R
SAINT CLOUD    CLOUDY    38  36  92 S8        29.41S FOG
MINNEAPOLIS    CLOUDY    49  46  90 S7        29.45F
$$

  *****  WEATHER ACROSS SOUTH DAKOTA  *****

CITY           SKY/WX    TMP DP  RH WIND       PRES   REMARKS
SIOUX FALLS    MOCLDY    42  40  92 CALM      29.40F
BROOKINGS      NOT AVBL
WATERTOWN      CLOUDY    34  31  88 CALM      29.40S
HURON          CLOUDY    35  31  85 W6        29.43R
SISSETON         N/A     40  33  76 W8        29.39R
ABERDEEN       CLOUDY    37  33  85 W6        29.42S
MITCHELL       CLOUDY    38  33  82 E3        29.40S
PIERRE         CLOUDY    40  37  89 NW24G31   29.46R
MOBRIDGE       LGT RAIN  40  37  89 NW10      29.47R
RAPID CITY     MOCLDY    41  21  44 NW15      29.58R
$$

  *****  SOME WEATHER IN NEARBY STATES *****

CITY           SKY/WX    TMP DP  RH WIND       PRES   REMARKS
GLASGOW MT     CLOUDY    32  23  69 NW31G41   29.51R WCI  17
GREAT FALLS MT CLOUDY    32  20  61 SW13      29.73R WCI  22
CHEYENNE WY    MOCLDY    34  16  47 NW17G30   29.62F WCI  23
SCOTTSBLUFF NE CLOUDY    37  27  67 NW14      29.65R
OMAHA NE       CLOUDY    53  52  96 S13       29.51F
DES MOINES IA  CLOUDY    54  50  86 S12       29.58F
DAVENPORT IA   CLOUDY    51  48  89 S15       29.69F FOG
CHICAGO IL     CLOUDY    51  46  83 S15       29.79F
EAU CLAIRE WI  CLOUDY    44  43  96 S10       29.50F FOG
LA CROSSE WI   CLOUDY    52  48  86 S14       29.57F
$$

  *****  SOME NATIONAL WEATHER *****

CITY           SKY/WX    TMP DP  RH WIND       PRES   REMARKS
LA GUARDIA NY  CLOUDY    44  22  41 SW12      30.17F
RALEIGH NC     CLOUDY    38  29  70 CALM      30.29S
ATLANTA GA     RAIN      46  43  89 E13       30.11F FOG
NEW ORLEANS LA CLOUDY    63  60  90 E12G18    29.77F
OKLAHOMA CITY  CLOUDY    55  52  89 S12G22    29.56F
ALBUQUERQUE NM MOCLDY    48  18  30 W7        29.79F
SALT LAKE CITY MOCLDY    38  28  67 W22G36    29.98R
LOS ANGELES CA PTCLDY    60  56  86 VRB5      30.04S
BOISE ID       CLEAR     33  27  78 N6        30.15R
SEATTLE WA     CLOUDY    46  43  87 S14       30.15R
$$

*** WEATHER ACROSS MANITOBA...SASKATCHEWAN AND ONTARIO ***
                ***ONTARIO***

CITY           SKY/WX    TMP DP  RH WIND       PRES   REMARKS
GERALDTON      CLOUDY    27  25  93 E7        29.66F WCI  19
THUNDER BAY    CLOUDY    37  34  87 SE14      29.58F
SIOUX LOOKOUT  CLOUDY    30  28  93 SE5       29.45F
TORONTO        CLOUDY    43  41  93 SW9       29.95S
BIG TROUT LK   MOCLDY     0  -2  92 E5        29.78S WCI -10
PICKLE LAKE    NOT AVBL
DRYDEN         CLOUDY    32  32 100 E6        29.43S
KENORA         CLOUDY    32  30  93 S10       29.39F WCI  24
$$
                *** MANITOBA***

CITY           SKY/WX    TMP DP  RH WIND       PRES   REMARKS
BRANDON        FOG       23  23 100 NE13G20   29.28S VSB 1/4 WCI  11
DAUPHIN        NOT AVBL
ISLAND LAKE    MOCLDY     5   1  85 NE8       29.68S WCI  -8
PILOT MOUND      N/A     27  25  93 SW6         N/A  WCI  20
THE PAS        FLURRIES   3   0  85 NE8       29.68R WCI -10
THOMPSON       PTCLDY   -15 -20  76 NE8       29.83R WCI -32
WINNIPEG       CLOUDY    32  30  93 S17       29.32S WCI  21
LYNN LAKE      CLEAR    -20 -24  83 N5        29.82S WCI -33
CHURCHILL      CLEAR    -13 -18  77 NW14      29.87R WCI -35
GILLAM         CLEAR    -20 -27  69 NW2       29.86R
$$
                ***SASKATCHEWAN***

CITY           SKY/WX    TMP DP  RH WIND       PRES   REMARKS
ESTEVAN        FLURRIES  32  25  74 W21G32    29.28  WCI  20
KINDERSLEY     LGT SNOW  21  18  86 NW10      29.62R WCI  10
LLOYDMINSTER   FLURRIES  14  12  92 N2        29.65R
PRINCE ALBERT  FLURRIES  10   5  79 NE10      29.64R WCI  -3
REGINA         SNOWSHWR  21  19  93 N21G32    29.32R WCI   6
YORKTON        LGT SNOW  12  10  92 N20       29.39R WCI  -6


USA.gov is the U.S. government's official web portal to all federal, state and local government web resources and services.